SCP
0 -0 0 0 0 0 0 0 0 0 0 0 0 0 0 0 0 0 0 0 0 -0 -0 -0 0 0 0 0 0 0 0 0 0 0 0 0 0 0 0 0 0 0 0 0
0 0 0 0 0 0 0 0 0 0 0 0 0 0 0 0 0 0 0 0 0 0 -0 -0 0 0 0 0 0 0 0 0 0 0 0 0 0 0 0 0 0 0 0 0
0 0 0 0 0 0 0 0 0 0 0 0 0 0 0 0 0 0 0 0 0 0 0 0 0 -0 -0 -0 0 0 0 0 0 0 0 0 0 0 0 0 0 0 0 0
0 -0 0 0 0 0 0 0 0 0 0 0 0 0 0 0 0 0 0 0 0 0 -0 -0 -0 -0 -0 -0 -0 0 0 0 0 0 0 0 0 0 0 0 0 0 0 0
0 0 0 0 0 0 0 0 0 0 0 0 0 0 0 0 0 0 0 0 0 0 0 -0 -0 -0 0 0 0 0 0 -0 0 0 0 0 0 0 0 0 0 0 0 0
0 0 0 0 0 0 0 0 0 0 0 0 0 0 0 0 0 0 0 0 0 0 0 0 0 0 0 0 0 0 0 0 -0 0 0 -0 0 0 0 0 0 0 0 0
0 0 0 0 0 0 0 0 0 0 0 0 0 0 0 0 0 0 0 0 0 0 0 0 0 0 0 0 0 0 0 0 -0 -0 0 0 0 0 0 0 0 0 0 0
0 0 -0 0 0 0 0 0 -0 0 0 0 0 0 0 0 0 0 0 0 0 0 0 0 0 0 -0 -0 -0 -0 -0 -0 0 0 0 0 0 -0 0 0 0 0 0 0
0 0 0 0 0 0 0 0 0 0 0 0 0 0 0 0 0 0 0 0 0 0 0 0 0 0 -0 -0 -0 -0 -0 -0 -0 -0 -0 -0 -0 -0 0 0 -0 -0 0 0
0 -0 -0 -0 0 0 0 0 0 0 0 0 0 0 0 0 0 0 0 0 0 0 0 0 0 -0 -0 -0 -0 -0 -0 -0 -0 -0 -0 0 -0 -0 -0 0 0 0 0 0
0 -0 -0 -0 -0 0 0 0 0 0 0 0 0 0 0 0 0 0 0 0 0 0 0 -0 -0 -0 -0 -0 -0 0 -0 -0 -0 -0 -0 -0 0 0 0 0 0 0 0 0
-0 -0 0 0 0 0 -0 0 0 0 0 0 0 0 0 0 0 0 0 0 0 0 0 0 -0 -0 -0 -0 0 0 -0 0 -0 0 0 0 0 0 0 0 0 0 0 0
-0 0 0 0 0 0 0 0 0 0 0 0 0 0 0 0 0 0 0 0 0 0 0 0 0 0 -0 0 0 0 0 0 0 0 0 0 0 0 0 0 0 0 0 0
0 0 0 -0 -0 -0 -0 0 0 0 0 0 0 0 0 0 0 0 0 0 0 0 0 0 0 0 -0 0 0 0 0 0 0 0 0 0 0 0 0 0 0 0 0 0
-0 -0 -0 0 0 0 0 0 0 0 0 0 0 0 0 0 0 0 0 0 0 0 0 0 0 0 0 0 0 0 0 0 0 0 0 0 0 0 0 0 0 0 0 0
-0 -0 0 0 0 0 0 0 0 0 0 0 0 0 0 0 0 0 0 0 0 0 0 0 0 0 0 0 0 0 0 0 0 0 0 0 0 0 0 0 0 0 0 0
-0 0 0 0 -0 0 0 0 0 0 0 0 0 0 0 0 0 0 0 0 0 0 0 0 0 0 0 0 0 0 0 0 0 0 0 0 0 0 0 0 0 0 0 0
0 0 -0 0 0 0 0 0 0 0 0 0 0 0 0 0 0 0 0 0 0 0 0 0 0 0 0 0 0 0 0 0 0 0 0 0 0 0 0 0 0 0 0 0
-0 0 0 0 0 0 0 0 0 0 0 0 0 0 0 0 0 0 0 0 0 0 -0 0 0 0 0 0 0 0 0 0 0 0 0 0 0 0 0 0 0 0 0 0
-0 -0 0 0 0 0 0 0 0 0 0 0 0 0 0 0 0 0 0 0 0 0 -0 0 0 0 0 0 0 0 0 0 0 0 0 0 0 0 0 0 0 0 0 0
-0 0 0 0 0 0 0 0 0 0 0 0 0 -0 0 0 0 0 0 -0 -0 0 0 0 0 0 0 0 0 0 0 0 0 0 0 0 0 0 0 0 0 0 0 0
0 0 0 0 0 0 0 0 0 0 0 0 0 0 0 0 0 0 -0 -0 -0 0 0 0 0 0 0 0 0 0 0 0 0 0 0 0 0 0 0 0 0 0 0 0
0 0 0 0 0 0 0 0 -0 -0 -0 -0 -0 -0 -0 0 0 0 0 -0 0 0 0 0 0 0 0 0 0 0 0 0 0 0 0 0 0 0 0 0 0 0 0 0
0 0 0 0 0 0 0 0 0 0 0 -0 -0 -0 -0 0 0 0 0 0 0 0 0 0 0 0 0 0 0 0 0 0 0 0 0 0 0 0 0 0 0 0 0 0
0 0 0 0 0 0 0 0 0 0 0 0 0 0 0 0 0 0 0 0 0 0 0 0 0 0 0 0 0 0 0 0 0 0 0 0 0 0 0 0 0 0 0 0
0 0 0 0 0 0 0 0 0 0 0 0 0 0 0 0 0 0 0 0 0 0 0 0 0 0 0 0 0 0 0 0 0 0 0 0 0 0 0 0 0 0 0 0
0 0 0 0 0 0 0 0 0 0 0 0 0 0 0 0 0 0 0 0 0 0 0 0 0 0 0 0 0 0 0 0 0 0 0 0 0 0 0 0 0 0 0 0
Wind_Speed_500mb
17 32 18 28 34 23 19 25 10 18 32 52 41 45 47 59 64 63 67 69 71 68 56 47 36 23 11 25 24 36 43 57 65 63 56 51 48 53 57 59 65 70 68 66
10 8 6 18 33 32 29 24 29 38 43 20 59 58 38 61 62 63 63 65 68 61 53 47 40 32 21 28 32 38 45 52 54 64 59 59 59 67 74 84 80 75 78 77
11 11 19 9 12 11 7 12 10 11 21 33 38 34 28 59 64 62 63 61 60 53 50 44 41 37 36 36 34 41 56 60 61 69 74 73 81 86 87 84 80 82 83 78
8 14 8 9 8 11 13 21 15 21 23 30 35 49 24 67 64 62 61 55 51 46 44 41 37 41 41 38 45 52 59 70 76 78 84 91 90 89 90 89 88 83 77 70
1 4 18 12 6 8 7 12 7 10 19 35 46 30 9 71 57 54 50 45 41 39 38 38 41 39 47 56 57 63 69 72 75 81 88 91 94 93 91 86 79 75 67 61
2 3 10 10 8 6 12 8 8 10 12 22 35 18 11 61 55 52 50 47 42 40 38 42 43 40 51 61 66 71 69 74 78 83 90 95 91 88 84 78 77 67 63 54
7 9 20 20 15 8 8 8 8 7 14 16 7 5 27 38 48 46 46 48 46 45 48 45 45 48 62 65 69 67 70 75 81 83 82 80 77 76 75 71 67 61 55 47
6 2 15 27 14 12 7 3 8 11 9 10 11 14 19 26 37 45 49 49 51 54 58 60 65 71 77 79 74 75 76 77 74 70 71 71 67 66 63 59 56 52 47 44
21 15 12 26 20 20 11 13 16 15 9 9 10 13 14 18 25 33 40 44 47 49 53 58 61 68 78 77 70 69 70 73 71 68 63 58 55 54 50 45 42 42 36 34
3 10 39 64 64 56 52 51 45 19 3 3 6 7 8 10 15 20 25 31 35 40 49 53 53 55 60 60 61 61 63 61 58 56 54 49 44 41 39 35 33 34 32 26
13 30 46 63 52 42 31 23 24 10 4 6 1 1 3 6 9 15 19 23 23 27 32 36 37 39 40 40 39 45 48 48 46 44 42 41 37 32 28 28 21 19 19 15
15 23 9 10 10 13 31 43 28 18 14 10 8 4 5 9 9 11 16 18 19 22 25 29 30 32 33 31 26 29 34 34 31 26 24 25 25 28 29 24 19 16 14 11
11 14 16 8 6 6 6 31 30 21 17 13 12 8 6 8 13 14 16 17 17 19 21 24 26 27 29 27 23 18 20 24 19 14 15 17 16 16 18 24 21 15 13 11
55 29 18 23 12 14 15 24 25 20 18 18 18 14 11 11 14 15 16 18 19 18 20 20 21 22 23 25 22 18 16 13 11 9 9 9 8 8 8 9 11 11 15 14
57 56 35 15 31 26 28 28 26 23 21 23 23 20 17 15 14 14 16 17 20 20 19 16 16 15 14 16 18 16 12 6 2 1 5 9 12 14 12 10 10 13 15 16
41 58 62 50 31 32 36 37 30 28 25 27 26 27 24 20 17 16 16 15 17 16 18 18 18 13 13 14 14 16 14 10 10 11 11 12 13 15 17 19 20 20 21 21
28 53 66 69 65 55 42 37 30 23 25 29 27 30 28 24 22 19 18 18 17 18 18 18 13 13 14 15 15 19 19 18 22 23 19 18 20 21 23 26 27 27 26 29
41 28 28 44 54 55 51 39 35 32 27 22 29 33 34 31 26 22 22 22 22 22 20 18 16 17 18 18 16 19 22 25 27 29 27 25 24 27 29 30 32 33 33 34
46 41 30 30 37 36 43 43 43 34 31 30 31 36 35 33 30 27 27 25 24 23 20 22 22 23 24 27 25 25 25 25 25 27 29 29 30 31 33 34 35 36 37 39
83 56 45 32 34 40 40 37 42 43 40 37 28 38 40 42 36 32 29 29 26 27 27 24 24 26 26 24 23 25 25 25 25 26 29 30 31 33 35 36 37 38 39 41
84 65 52 37 30 33 37 39 37 42 43 42 36 39 42 42 42 38 38 34 32 30 29 28 26 23 23 23 23 24 25 25 25 26 29 32 35 36 37 37 39 39 40 42
79 61 58 42 34 30 32 33 33 36 41 39 36 40 44 46 42 40 38 34 35 30 28 28 25 24 24 24 24 24 25 26 27 30 32 34 35 36 37 38 40 40 42 43
72 56 59 49 39 32 31 32 32 34 36 38 40 43 42 39 36 31 29 32 31 30 26 25 25 25 25 26 26 26 27 28 29 32 33 35 37 38 40 41 42 43 44 45
69 51 55 55 46 37 35 35 33 33 34 35 37 38 37 37 38 35 32 31 30 28 27 27 26 27 27 27 27 28 29 30 32 34 36 39 40 42 44 44 46 46 48 49
56 51 50 58 57 45 34 35 35 36 37 40 43 43 41 41 39 37 36 35 34 31 30 30 30 29 28 29 31 32 33 35 38 41 42 44 46 48 49 50 51 51 52 51
55 52 45 45 44 38 36 38 34 34 37 40 42 44 44 43 42 40 38 37 36 36 36 35 32 31 32 35 37 39 41 43 45 48 50 51 52 54 54 54 53 53 52 51
53 48 44 45 44 42 40 39 38 36 34 34 34 38 41 43 43 41 40 38 37 36 36 37 37 38 39 41 44 46 48 50 52 54 55 57 58 58 58 57 55 54 54 55
Wind_Direction_500mb
257 267 273 269 267 259 210 231 253 276 300 305 333 326 329 338 337 342 345 348 353 358 4 14 18 28 81 144 168 179 188 180 177 178 181 179 171 167 161 163 163 156 157 156
288 300 170 274 267 259 246 249 251 266 284 340 328 325 338 345 345 346 349 352 1 8 16 29 39 52 84 123 149 164 166 164 160 159 158 154 152 153 153 153 151 156 155 151
270 335 309 320 231 209 240 208 202 273 299 328 321 328 350 347 352 348 351 0 8 18 28 40 56 72 87 106 126 141 140 141 146 150 148 148 152 150 151 149 149 149 145 140
278 337 6 248 283 220 229 259 241 268 291 310 312 315 317 2 356 353 0 7 18 28 40 53 68 83 99 111 122 130 133 137 142 145 145 146 147 146 145 141 143 136 127 124
155 258 295 303 201 167 158 284 214 263 297 316 328 323 286 0 6 8 12 17 28 39 52 63 75 90 102 108 118 124 127 132 137 140 141 142 140 139 136 138 128 122 124 134
66 150 228 241 140 109 120 295 198 245 301 333 342 15 337 355 11 18 26 29 38 53 63 77 86 97 104 109 115 116 124 128 133 135 134 132 132 134 130 128 122 130 140 143
194 250 284 254 221 115 78 242 234 327 332 343 10 302 331 7 22 32 35 40 46 59 72 80 89 93 100 105 106 116 121 123 125 128 128 127 127 124 121 121 135 139 138 135
125 207 289 189 109 180 177 96 350 342 345 342 350 5 17 27 29 40 46 54 60 69 78 88 93 93 95 100 109 111 115 118 120 120 120 119 118 121 134 137 137 137 138 136
190 215 247 203 229 205 226 274 341 324 337 358 0 16 27 39 44 50 54 60 67 74 83 88 94 100 105 109 111 113 116 116 114 112 113 119 124 130 133 136 137 135 139 146
131 257 235 249 250 254 264 263 281 279 302 49 13 16 48 56 62 67 75 75 77 84 89 92 96 100 104 110 110 110 112 118 121 122 125 128 130 131 132 135 141 144 149 147
263 280 268 262 257 252 260 231 197 219 232 147 112 14 105 94 98 87 90 91 95 94 95 98 102 102 104 109 118 118 118 120 124 125 128 130 129 125 128 129 127 139 148 158
221 233 227 261 278 269 235 220 216 248 216 175 173 178 160 134 125 125 116 115 115 112 112 112 112 111 111 113 120 113 114 116 115 116 124 135 142 147 152 158 155 163 180 191
210 225 210 221 262 311 188 200 215 203 211 187 169 176 164 162 149 150 151 143 139 137 135 131 129 126 123 121 124 119 119 119 115 122 138 149 157 166 169 171 179 193 203 222
226 228 234 227 219 195 163 163 177 191 204 191 179 177 181 169 170 169 166 164 162 159 151 144 143 141 139 138 138 139 141 127 104 91 131 153 165 184 213 223 219 221 237 249
228 224 227 227 213 207 203 199 199 203 207 200 183 182 188 190 185 183 178 176 176 172 170 164 159 157 160 160 159 162 167 176 161 77 188 197 203 207 212 221 238 257 266 266
220 219 224 229 230 221 214 211 208 207 209 210 194 191 193 194 193 192 187 194 192 186 185 185 182 188 193 197 203 206 204 230 241 255 251 240 237 235 238 244 252 260 263 269
196 203 214 225 224 223 219 214 214 224 219 217 208 190 198 200 199 196 194 196 199 197 195 191 198 213 213 216 229 228 224 244 245 251 255 250 249 248 251 254 259 265 269 273
224 236 231 229 220 220 220 216 209 213 225 212 208 196 198 201 202 202 201 201 204 205 203 208 215 223 237 245 259 258 258 251 247 245 249 256 261 258 259 263 267 270 274 275
218 219 215 216 217 221 223 222 223 227 215 209 214 214 200 199 204 207 208 208 211 210 213 220 229 238 250 256 259 253 255 256 252 248 248 253 258 262 266 267 268 270 272 275
216 220 216 212 208 213 214 214 219 220 217 217 216 207 203 198 205 209 212 217 215 214 220 228 240 255 260 257 257 258 261 261 258 254 253 259 262 263 265 266 269 272 273 275
203 211 209 207 204 207 207 210 216 217 216 216 218 212 209 197 203 209 213 215 213 221 227 239 255 256 253 251 256 261 262 263 266 269 269 269 269 270 271 273 275 277 277 278
194 204 200 202 198 197 194 202 208 207 210 214 211 206 206 209 209 215 219 222 228 229 236 249 252 256 258 259 264 268 268 271 273 273 275 275 274 274 275 275 276 276 275 275
191 197 198 199 196 199 199 200 202 204 204 206 204 204 206 211 216 221 213 212 217 226 237 245 251 257 260 264 267 270 272 274 275 275 276 276 276 278 279 280 279 278 279 279
196 195 198 198 203 210 207 200 198 200 197 197 199 203 208 208 210 212 209 216 223 227 233 241 249 255 260 267 275 278 279 278 276 274 274 277 280 281 282 282 280 279 278 278
198 199 201 206 214 216 208 201 201 201 199 199 198 202 206 207 210 216 217 220 225 230 236 244 252 260 266 270 275 278 279 279 279 279 279 280 280 280 281 279 279 279 280 282
199 201 205 209 208 206 208 205 206 206 206 207 208 208 208 210 213 218 223 228 234 238 244 251 259 269 272 275 277 279 280 280 283 283 282 281 280 280 280 280 282 283 285 287
200 200 203 200 199 202 205 205 208 211 213 214 217 221 221 221 222 225 232 239 246 252 257 262 266 270 273 276 278 279 280 283 285 286 286 286 285 286 287 286 286 287 288 287
Wind_Speed_850mb
17 32 18 28 34 23 19 25 10 18 32 52 41 45 47 59 64 63 67 69 71 68 56 47 36 23 11 25 24 36 43 57 65 63 56 51 48 53 57 59 65 70 68 66
10 8 6 18 33 32 29 24 29 38 43 20 59 58 38 61 62 63 63 65 68 61 53 47 40 32 21 28 32 38 45 52 54 64 59 59 59 67 74 84 80 75 78 77
11 11 19 9 12 11 7 12 10 11 21 33 38 34 28 59 64 62 63 61 60 53 50 44 41 37 36 36 34 41 56 60 61 69 74 73 81 86 87 84 80 82 83 78
8 14 8 9 8 11 13 21 15 21 23 30 35 49 24 67 64 62 61 55 51 46 44 41 37 41 41 38 45 52 59 70 76 78 84 91 90 89 90 89 88 83 77 70
1 4 18 12 6 8 7 12 7 10 19 35 46 30 9 71 57 54 50 45 41 39 38 38 41 39 47 56 57 63 69 72 75 81 88 91 94 93 91 86 79 75 67 61
2 3 10 10 8 6 12 8 8 10 12 22 35 18 11 61 55 52 50 47 42 40 38 42 43 40 51 61 66 71 69 74 78 83 90 95 91 88 84 78 77 67 63 54
7 9 20 20 15 8 8 8 8 7 14 16 7 5 27 38 48 46 46 48 46 45 48 45 45 48 62 65 69 67 70 75 81 83 82 80 77 76 75 71 67 61 55 47
6 2 15 27 14 12 7 3 8 11 9 10 11 14 19 26 37 45 49 49 51 54 58 60 65 71 77 79 74 75 76 77 74 70 71 71 67 66 63 59 56 52 47 44
21 15 12 26 20 20 11 13 16 15 9 9 10 13 14 18 25 33 40 44 47 49 53 58 61 68 78 77 70 69 70 73 71 68 63 58 55 54 50 45 42 42 36 34
3 10 39 64 64 56 52 51 45 19 3 3 6 7 8 10 15 20 25 31 35 40 49 53 53 55 60 60 61 61 63 61 58 56 54 49 44 41 39 35 33 34 32 26
13 30 46 63 52 42 31 23 24 10 4 6 1 1 3 6 9 15 19 23 23 27 32 36 37 39 40 40 39 45 48 48 46 44 42 41 37 32 28 28 21 19 19 15
15 23 9 10 10 13 31 43 28 18 14 10 8 4 5 9 9 11 16 18 19 22 25 29 30 32 33 31 26 29 34 34 31 26 24 25 25 28 29 24 19 16 14 11
11 14 16 8 6 6 6 31 30 21 17 13 12 8 6 8 13 14 16 17 17 19 21 24 26 27 29 27 23 18 20 24 19 14 15 17 16 16 18 24 21 15 13 11
55 29 18 23 12 14 15 24 25 20 18 18 18 14 11 11 14 15 16 18 19 18 20 20 21 22 23 25 22 18 16 13 11 9 9 9 8 8 8 9 11 11 15 14
57 56 35 15 31 26 28 28 26 23 21 23 23 20 17 15 14 14 16 17 20 20 19 16 16 15 14 16 18 16 12 6 2 1 5 9 12 14 12 10 10 13 15 16
41 58 62 50 31 32 36 37 30 28 25 27 26 27 24 20 17 16 16 15 17 16 18 18 18 13 13 14 14 16 14 10 10 11 11 12 13 15 17 19 20 20 21 21
28 53 66 69 65 55 42 37 30 23 25 29 27 30 28 24 22 19 18 18 17 18 18 18 13 13 14 15 15 19 19 18 22 23 19 18 20 21 23 26 27 27 26 29
41 28 28 44 54 55 51 39 35 32 27 22 29 33 34 31 26 22 22 22 22 22 20 18 16 17 18 18 16 19 22 25 27 29 27 25 24 27 29 30 32 33 33 34
46 41 30 30 37 36 43 43 43 34 31 30 31 36 35 33 30 27 27 25 24 23 20 22 22 23 24 27 25 25 25 25 25 27 29 29 30 31 33 34 35 36 37 39
83 56 45 32 34 40 40 37 42 43 40 37 28 38 40 42 36 32 29 29 26 27 27 24 24 26 26 24 23 25 25 25 25 26 29 30 31 33 35 36 37 38 39 41
84 65 52 37 30 33 37 39 37 42 43 42 36 39 42 42 42 38 38 34 32 30 29 28 26 23 23 23 23 24 25 25 25 26 29 32 35 36 37 37 39 39 40 42
79 61 58 42 34 30 32 33 33 36 41 39 36 40 44 46 42 40 38 34 35 30 28 28 25 24 24 24 24 24 25 26 27 30 32 34 35 36 37 38 40 40 42 43
72 56 59 49 39 32 31 32 32 34 36 38 40 43 42 39 36 31 29 32 31 30 26 25 25 25 25 26 26 26 27 28 29 32 33 35 37 38 40 41 42 43 44 45
69 51 55 55 46 37 35 35 33 33 34 35 37 38 37 37 38 35 32 31 30 28 27 27 26 27 27 27 27 28 29 30 32 34 36 39 40 42 44 44 46 46 48 49
56 51 50 58 57 45 34 35 35 36 37 40 43 43 41 41 39 37 36 35 34 31 30 30 30 29 28 29 31 32 33 35 38 41 42 44 46 48 49 50 51 51 52 51
55 52 45 45 44 38 36 38 34 34 37 40 42 44 44 43 42 40 38 37 36 36 36 35 32 31 32 35 37 39 41 43 45 48 50 51 52 54 54 54 53 53 52 51
53 48 44 45 44 42 40 39 38 36 34 34 34 38 41 43 43 41 40 38 37 36 36 37 37 38 39 41 44 46 48 50 52 54 55 57 58 58 58 57 55 54 54 55
Wind_Direction_850mb
257 267 273 269 267 259 210 231 253 276 300 305 333 326 329 338 337 342 345 348 353 358 4 14 18 28 81 144 168 179 188 180 177 178 181 179 171 167 161 163 163 156 157 156
288 300 170 274 267 259 246 249 251 266 284 340 328 325 338 345 345 346 349 352 1 8 16 29 39 52 84 123 149 164 166 164 160 159 158 154 152 153 153 153 151 156 155 151
270 335 309 320 231 209 240 208 202 273 299 328 321 328 350 347 352 348 351 0 8 18 28 40 56 72 87 106 126 141 140 141 146 150 148 148 152 150 151 149 149 149 145 140
278 337 6 248 283 220 229 259 241 268 291 310 312 315 317 2 356 353 0 7 18 28 40 53 68 83 99 111 122 130 133 137 142 145 145 146 147 146 145 141 143 136 127 124
155 258 295 303 201 167 158 284 214 263 297 316 328 323 286 0 6 8 12 17 28 39 52 63 75 90 102 108 118 124 127 132 137 140 141 142 140 139 136 138 128 122 124 134
66 150 228 241 140 109 120 295 198 245 301 333 342 15 337 355 11 18 26 29 38 53 63 77 86 97 104 109 115 116 124 128 133 135 134 132 132 134 130 128 122 130 140 143
194 250 284 254 221 115 78 242 234 327 332 343 10 302 331 7 22 32 35 40 46 59 72 80 89 93 100 105 106 116 121 123 125 128 128 127 127 124 121 121 135 139 138 135
125 207 289 189 109 180 177 96 350 342 345 342 350 5 17 27 29 40 46 54 60 69 78 88 93 93 95 100 109 111 115 118 120 120 120 119 118 121 134 137 137 137 138 136
190 215 247 203 229 205 226 274 341 324 337 358 0 16 27 39 44 50 54 60 67 74 83 88 94 100 105 109 111 113 116 116 114 112 113 119 124 130 133 136 137 135 139 146
131 257 235 249 250 254 264 263 281 279 302 49 13 16 48 56 62 67 75 75 77 84 89 92 96 100 104 110 110 110 112 118 121 122 125 128 130 131 132 135 141 144 149 147
263 280 268 262 257 252 260 231 197 219 232 147 112 14 105 94 98 87 90 91 95 94 95 98 102 102 104 109 118 118 118 120 124 125 128 130 129 125 128 129 127 139 148 158
221 233 227 261 278 269 235 220 216 248 216 175 173 178 160 134 125 125 116 115 115 112 112 112 112 111 111 113 120 113 114 116 115 116 124 135 142 147 152 158 155 163 180 191
210 225 210 221 262 311 188 200 215 203 211 187 169 176 164 162 149 150 151 143 139 137 135 131 129 126 123 121 124 119 119 119 115 122 138 149 157 166 169 171 179 193 203 222
226 228 234 227 219 195 163 163 177 191 204 191 179 177 181 169 170 169 166 164 162 159 151 144 143 141 139 138 138 139 141 127 104 91 131 153 165 184 213 223 219 221 237 249
228 224 227 227 213 207 203 199 199 203 207 200 183 182 188 190 185 183 178 176 176 172 170 164 159 157 160 160 159 162 167 176 161 77 188 197 203 207 212 221 238 257 266 266
220 219 224 229 230 221 214 211 208 207 209 210 194 191 193 194 193 192 187 194 192 186 185 185 182 188 193 197 203 206 204 230 241 255 251 240 237 235 238 244 252 260 263 269
196 203 214 225 224 223 219 214 214 224 219 217 208 190 198 200 199 196 194 196 199 197 195 191 198 213 213 216 229 228 224 244 245 251 255 250 249 248 251 254 259 265 269 273
224 236 231 229 220 220 220 216 209 213 225 212 208 196 198 201 202 202 201 201 204 205 203 208 215 223 237 245 259 258 258 251 247 245 249 256 261 258 259 263 267 270 274 275
218 219 215 216 217 221 223 222 223 227 215 209 214 214 200 199 204 207 208 208 211 210 213 220 229 238 250 256 259 253 255 256 252 248 248 253 258 262 266 267 268 270 272 275
216 220 216 212 208 213 214 214 219 220 217 217 216 207 203 198 205 209 212 217 215 214 220 228 240 255 260 257 257 258 261 261 258 254 253 259 262 263 265 266 269 272 273 275
203 211 209 207 204 207 207 210 216 217 216 216 218 212 209 197 203 209 213 215 213 221 227 239 255 256 253 251 256 261 262 263 266 269 269 269 269 270 271 273 275 277 277 278
194 204 200 202 198 197 194 202 208 207 210 214 211 206 206 209 209 215 219 222 228 229 236 249 252 256 258 259 264 268 268 271 273 273 275 275 274 274 275 275 276 276 275 275
191 197 198 199 196 199 199 200 202 204 204 206 204 204 206 211 216 221 213 212 217 226 237 245 251 257 260 264 267 270 272 274 275 275 276 276 276 278 279 280 279 278 279 279
196 195 198 198 203 210 207 200 198 200 197 197 199 203 208 208 210 212 209 216 223 227 233 241 249 255 260 267 275 278 279 278 276 274 274 277 280 281 282 282 280 279 278 278
198 199 201 206 214 216 208 201 201 201 199 199 198 202 206 207 210 216 217 220 225 230 236 244 252 260 266 270 275 278 279 279 279 279 279 280 280 280 281 279 279 279 280 282
199 201 205 209 208 206 208 205 206 206 206 207 208 208 208 210 213 218 223 228 234 238 244 251 259 269 272 275 277 279 280 280 283 283 282 281 280 280 280 280 282 283 285 287
200 200 203 200 199 202 205 205 208 211 213 214 217 221 221 221 222 225 232 239 246 252 257 262 266 270 273 276 278 279 280 283 285 286 286 286 285 286 287 286 286 287 288 287